DW5852 Weather Reports


Display with metric or nautical units.
time (UTC)temp
F
wind
direction
speed
MPH
gust
MPH
rain 1hr
in
rain 24hr
in
rain mn
in
humidity
%
barometer
mb
20180222144803 20 211 0.0 0.0 0.00 0.00 0.00 90 1001.2
20180222144302 20 239 0.0 0.0 0.00 0.00 0.00 91 1001.3
20180222143802 19 248 0.0 0.0 0.00 0.00 0.00 91 1001.4
20180222143302 19 226 0.0 0.0 0.00 0.00 0.00 90 1001.5
20180222142802 19 257 0.0 0.0 0.00 0.00 0.00 90 1001.6
20180222142302 19 266 0.0 0.0 0.00 0.00 0.00 90 1001.6
20180222141802 19 207 0.0 1.0 0.00 0.00 0.00 90 1001.5
20180222141302 19 177 0.0 0.0 0.00 0.00 0.00 90 1001.4
20180222140802 19 205 0.0 0.0 0.00 0.00 0.00 90 1001.5
20180222140302 19 162 0.0 1.0 0.00 0.00 0.00 90 1001.4
20180222135802 19 183 0.0 0.0 0.00 0.00 0.00 90 1001.6
20180222135302 19 194 0.0 1.0 0.00 0.00 0.00 90 1001.6
20180222134802 19 256 0.0 0.0 0.00 0.00 0.00 89 1001.2
20180222134302 19 158 0.0 0.0 0.00 0.00 0.00 89 1001.4
20180222133802 19 232 0.0 0.0 0.00 0.00 0.00 88 1001.5
20180222133302 19 142 0.0 0.0 0.00 0.00 0.00 88 1001.4
20180222132802 19 213 0.0 0.0 0.00 0.00 0.00 88 1001.4
20180222132303 19 187 0.0 0.0 0.00 0.00 0.00 89 1001.4
20180222131802 19 225 0.0 1.0 0.00 0.00 0.00 89 1001.4
20180222131302 19 142 0.0 0.0 0.00 0.00 0.00 89 1001.4
20180222130802 19 184 0.0 0.0 0.00 0.00 0.00 89 1001.4
20180222130302 19 250 0.0 0.0 0.00 0.00 0.00 89 1001.4
20180222125803 19 224 0.0 0.0 0.00 0.00 0.00 89 1001.4
20180222125302 19 253 0.0 0.0 0.00 0.00 0.00 89 1001.6
20180222124802 19 233 0.0 1.0 0.00 0.00 0.00 89 1001.8
20180222124303 19 201 0.0 2.0 0.00 0.00 0.00 89 1001.6
20180222123803 19 243 0.0 1.0 0.00 0.00 0.00 89 1001.7
20180222123302 20 166 0.0 1.0 0.00 0.00 0.00 88 1001.8
20180222122802 20 167 0.0 0.0 0.00 0.00 0.00 87 1001.9
20180222122302 20 159 0.0 0.0 0.00 0.00 0.00 86 1001.8
20180222121802 20 160 0.0 0.0 0.00 0.00 0.00 84 1002.2
20180222121302 21 217 0.0 1.0 0.00 0.00 0.00 82 1002.2
20180222120802 21 245 0.0 0.0 0.00 0.00 0.00 81 1002.2
20180222120303 21 172 0.0 1.0 0.00 0.00 0.00 81 1002.1
20180222115803 21 129 0.0 1.0 0.00 0.00 0.00 81 1002.2
20180222115302 21 141 0.0 0.0 0.00 0.00 0.00 81 1002.1
20180222114803 21 167 0.0 0.0 0.00 0.00 0.00 81 1002.0
20180222114302 21 196 0.0 3.0 0.00 0.00 0.00 81 1002.1
20180222113802 21 184 0.0 2.0 0.00 0.00 0.00 81 1002.4
20180222113302 21 174 1.0 2.0 0.00 0.00 0.00 81 1002.4
20180222112802 21 194 0.0 4.0 0.00 0.00 0.00 81 1002.4
20180222112306 22 169 0.0 3.0 0.00 0.00 0.00 80 1002.8
20180222111802 21 173 0.0 1.0 0.00 0.00 0.00 79 1002.8
20180222111302 21 257 0.0 1.0 0.00 0.00 0.00 79 1003.1
20180222110802 21 250 0.0 0.0 0.00 0.00 0.00 78 1003.0
20180222110302 21 226 0.0 0.0 0.00 0.00 0.00 79 1003.1
20180222105803 21 238 0.0 0.0 0.00 0.00 0.00 79 1002.9
20180222105305 21 203 0.0 1.0 0.00 0.00 0.00 79 1003.0
20180222104803 21 127 0.0 1.0 0.00 0.00 0.00 79 1003.1
20180222104303 21 192 0.0 1.0 0.00 0.00 0.00 79 1003.2
20180222103803 21 211 0.0 0.0 0.00 0.00 0.00 79 1003.1
20180222103302 22 163 0.0 1.0 0.00 0.00 0.00 79 1003.1
20180222102803 22 186 0.0 0.0 0.00 0.00 0.00 80 1003.2
20180222102302 22 187 0.0 2.0 0.00 0.00 0.00 79 1003.3
20180222101802 22 232 0.0 2.0 0.00 0.00 0.00 79 1003.5
20180222101302 22 169 0.0 0.0 0.00 0.00 0.00 80 1003.6
20180222100802 22 264 0.0 1.0 0.00 0.00 0.00 79 1003.6
20180222100302 22 172 0.0 2.0 0.00 0.00 0.00 80 1003.7
20180222095802 22 158 0.0 0.0 0.00 0.00 0.00 80 1003.9
20180222095305 22 166 0.0 2.0 0.00 0.00 0.00 81 1003.9
20180222094802 22 167 0.0 2.0 0.00 0.00 0.00 80 1004.1
20180222094303 22 173 0.0 1.0 0.00 0.00 0.00 81 1004.2
20180222093802 22 176 0.0 0.0 0.00 0.00 0.00 82 1004.3
20180222093302 22 165 0.0 1.0 0.00 0.00 0.00 82 1004.4
20180222092802 22 228 0.0 1.0 0.00 0.00 0.00 81 1004.6
20180222092306 22 155 0.0 0.0 0.00 0.00 0.00 82 1004.7
20180222091802 22 214 0.0 0.0 0.00 0.00 0.00 81 1004.8
20180222091303 22 201 0.0 0.0 0.00 0.00 0.00 82 1004.8
20180222090802 21 134 0.0 0.0 0.00 0.00 0.00 82 1005.1
20180222090302 21 236 0.0 0.0 0.00 0.00 0.00 81 1005.1
20180222085802 21 160 0.0 0.0 0.00 0.00 0.00 81 1005.2
20180222085303 22 242 0.0 0.0 0.00 0.00 0.00 81 1005.3
20180222084803 21 242 0.0 1.0 0.00 0.00 0.00 81 1005.5
20180222084302 21 222 0.0 0.0 0.00 0.00 0.00 80 1005.6
20180222083803 22 159 0.0 1.0 0.00 0.00 0.00 80 1005.9
20180222083302 22 173 0.0 0.0 0.00 0.00 0.00 79 1006.0
20180222082802 22 188 0.0 0.0 0.00 0.00 0.00 79 1006.1
20180222082303 22 163 0.0 0.0 0.00 0.00 0.00 79 1006.3
20180222081802 22 181 0.0 0.0 0.00 0.00 0.00 79 1006.4
20180222081302 22 259 0.0 0.0 0.00 0.00 0.00 79 1006.5
20180222080802 22 231 0.0 0.0 0.00 0.00 0.00 79 1006.7
20180222080303 22 252 0.0 1.0 0.00 0.00 0.00 79 1006.7
20180222075802 22 233 0.0 0.0 0.00 0.00 0.00 80 1006.7
20180222075305 22 190 0.0 0.0 0.00 0.00 0.00 79 1006.8
20180222074802 22 208 0.0 0.0 0.00 0.00 0.00 80 1006.8
20180222074302 22 188 0.0 1.0 0.00 0.00 0.00 81 1007.1
20180222073804 22 198 0.0 2.0 0.00 0.00 0.00 81 1007.2
20180222073303 22 113 0.0 1.0 0.00 0.00 0.00 82 1007.2
20180222072802 22 190 0.0 2.0 0.00 0.00 0.00 83 1007.2
20180222072305 22 163 0.0 1.0 0.00 0.00 0.00 85 1007.3
20180222071802 22 152 0.0 0.0 0.00 0.00 0.00 88 1007.3
20180222071302 22 187 0.0 0.0 0.00 0.00 0.00 90 1007.3
20180222070802 22 219 0.0 0.0 0.00 0.00 0.00 91 1007.5
20180222070303 21 228 0.0 0.0 0.00 0.00 0.00 91 1007.7
20180222065803 21 228 0.0 0.0 0.00 0.00 0.00 91 1007.7
20180222065303 21 255 0.0 0.0 0.00 0.00 0.00 91 1007.8
20180222064802 21 205 0.0 1.0 0.00 0.00 0.00 91 1007.8
20180222064302 21 240 0.0 1.0 0.00 0.00 0.00 91 1007.9
20180222063802 22 198 0.0 4.0 0.00 0.00 0.00 91 1008.1
20180222063302 22 177 0.0 8.0 0.00 0.00 0.00 91 1008.3
20180222062802 22 178 0.0 8.0 0.00 0.00 0.00 91 1008.4
20180222062302 22 205 2.0 6.0 0.00 0.00 0.00 91 1008.4
20180222061803 22 120 0.0 4.0 0.00 0.00 0.00 91 1008.5
20180222061302 22 183 0.0 7.0 0.00 0.00 0.00 91 1008.6
20180222060802 22 155 0.0 4.0 0.00 0.00 0.00 91 1008.7
20180222060308 22 173 1.0 3.0 0.00 0.00 0.00 91 1008.8
20180222055802 22 205 0.0 1.0 0.00 0.00 0.00 91 1008.8
20180222055302 22 165 0.0 11.0 0.00 0.00 0.00 91 1008.9
20180222054803 22 221 0.0 11.0 0.00 0.00 0.00 91 1009.1
20180222054302 23 173 6.0 10.0 0.00 0.00 0.00 91 1009.1
20180222053802 23 141 0.0 10.0 0.00 0.00 0.00 91 1009.1
20180222053302 23 150 0.0 6.0 0.00 0.00 0.00 91 1009.1
20180222052802 23 160 0.0 7.0 0.00 0.00 0.00 91 1009.2
20180222052302 23 158 0.0 2.0 0.00 0.00 0.00 91 1009.1
20180222051803 23 167 0.0 4.0 0.00 0.00 0.00 91 1009.2
20180222051302 23 200 3.0 10.0 0.00 0.00 0.00 90 1009.2
20180222050802 23 195 1.0 1.0 0.00 0.00 0.00 90 1009.4
20180222050302 23 219 0.0 2.0 0.00 0.00 0.00 90 1009.4
20180222045802 23 194 0.0 7.0 0.00 0.00 0.00 89 1009.4
20180222045302 23 163 0.0 12.0 0.00 0.00 0.00 89 1009.5
20180222044802 23 218 9.0 9.0 0.00 0.00 0.00 90 1009.5
20180222044302 23 245 4.0 6.0 0.00 0.00 0.00 89 1009.5
20180222043803 23 247 0.0 14.0 0.00 0.00 0.00 89 1009.5
20180222043303 23 203 0.0 12.0 0.00 0.00 0.00 89 1009.5
20180222042802 23 229 0.0 11.0 0.00 0.00 0.00 89 1009.5
20180222042302 23 222 0.0 11.0 0.00 0.00 0.00 89 1009.6
20180222041803 24 162 4.0 9.0 0.00 0.00 0.00 89 1009.6
20180222041302 24 179 7.0 13.0 0.00 0.00 0.00 89 1009.7
20180222040803 24 204 2.0 9.0 0.00 0.00 0.00 89 1009.7
20180222040302 24 222 7.0 15.0 0.00 0.00 0.00 89 1009.5
20180222035802 24 149 16.0 16.0 0.00 0.00 0.00 90 1009.5
20180222035302 24 166 2.0 8.0 0.00 0.00 0.00 90 1009.5
20180222034803 24 142 0.0 3.0 0.00 0.00 0.00 90 1009.4
20180222034302 24 195 0.0 8.0 0.00 0.00 0.00 90 1009.4
20180222033802 24 257 0.0 7.0 0.00 0.00 0.00 90 1009.5
20180222033302 24 201 0.0 11.0 0.00 0.00 0.00 90 1009.6
20180222032802 24 195 0.0 14.0 0.00 0.00 0.00 90 1009.5
20180222032302 24 242 0.0 15.0 0.00 0.00 0.00 90 1009.5
20180222031802 24 188 0.0 6.0 0.00 0.00 0.00 90 1009.5
20180222031302 24 167 0.0 11.0 0.00 0.00 0.00 91 1009.4
20180222030802 25 236 0.0 12.0 0.00 0.00 0.00 91 1009.5
20180222030303 25 202 0.0 7.0 0.00 0.00 0.00 91 1009.4
20180222025802 25 169 0.0 4.0 0.00 0.00 0.00 91 1009.4
20180222025302 25 246 0.0 12.0 0.00 0.00 0.00 90 1009.1
20180222024802 25 174 13.0 13.0 0.00 0.00 0.00 90 1009.1
20180222024302 25 165 0.0 16.0 0.00 0.00 0.00 90 1009.1
20180222023802 26 170 8.0 13.0 0.00 0.00 0.00 90 1009.3
20180222023303 26 262 0.0 16.0 0.00 0.00 0.00 89 1009.0
20180222022802 26 176 0.0 10.0 0.00 0.00 0.00 89 1008.9
20180222022302 26 172 8.0 10.0 0.00 0.00 0.00 89 1008.8
20180222021802 27 193 1.0 13.0 0.00 0.00 0.00 88 1009.0
20180222021302 28 155 3.0 20.0 0.00 0.00 0.00 87 1008.9
20180222020803 28 229 0.0 10.0 0.00 0.00 0.00 89 1008.9
20180222020302 29 149 0.0 6.0 0.00 0.00 0.00 90 1008.7
20180222015802 29 205 0.0 4.0 0.00 0.00 0.00 90 1008.4
20180222015302 29 172 0.0 0.0 0.00 0.00 0.00 89 1008.4
20180222014802 29 173 0.0 1.0 0.00 0.00 0.00 88 1008.5
20180222014302 30 183 0.0 2.0 0.00 0.00 0.00 87 1008.3
20180222013802 30 138 0.0 7.0 0.00 0.00 0.00 85 1008.2
20180222013302 31 218 0.0 3.0 0.00 0.00 0.00 82 1008.2
20180222012802 31 232 3.0 10.0 0.00 0.00 0.00 77 1008.1
20180222012302 32 205 1.0 7.0 0.00 0.00 0.00 74 1008.0
20180222011803 32 140 3.0 6.0 0.00 0.00 0.00 73 1007.8
20180222011302 32 194 0.0 7.0 0.00 0.00 0.00 72 1007.7
20180222010802 32 145 0.0 2.0 0.00 0.00 0.00 69 1007.6
20180222010302 33 280 0.0 5.0 0.00 0.00 0.00 68 1007.5
20180222005803 33 169 0.0 2.0 0.00 0.00 0.00 68 1007.4
20180222005302 33 183 0.0 9.0 0.00 0.00 0.00 66 1007.4
20180222004802 33 132 0.0 5.0 0.00 0.00 0.00 64 1007.4
20180222004302 34 219 0.0 2.0 0.00 0.00 0.00 64 1007.4
20180222003802 34 197 0.0 3.0 0.00 0.00 0.00 64 1007.3
20180222003302 34 180 0.0 4.0 0.00 0.00 0.00 64 1007.3
20180222002802 33 134 0.0 1.0 0.00 0.00 0.00 66 1007.2
20180222002302 33 174 0.0 6.0 0.00 0.00 0.00 67 1007.1
20180222001802 33 162 0.0 1.0 0.00 0.00 0.00 69 1007.2
20180222001302 33 262 0.0 1.0 0.00 0.00 0.00 69 1007.2
20180222000802 33 205 0.0 5.0 0.00 0.00 0.00 69 1007.1
20180222000302 33 217 0.0 6.0 0.00 0.00 0.00 69 1007.1
20180221235802 33 218 3.0 12.0 0.00 0.00 0.00 68 1007.1
20180221235302 34 162 6.0 13.0 0.00 0.00 0.00 67 1007.1
20180221234802 35 136 5.0 12.0 0.00 0.00 0.00 60 1006.9
20180221234302 35 180 6.0 11.0 0.00 0.00 0.00 58 1006.8
20180221233802 36 93 5.0 9.0 0.00 0.00 0.00 57 1006.7
20180221233302 36 160 1.0 10.0 0.00 0.00 0.00 55 1006.7
20180221232802 36 174 5.0 12.0 0.00 0.00 0.00 54 1006.6
20180221232302 37 159 4.0 9.0 0.00 0.00 0.00 53 1006.6
20180221231802 37 141 2.0 13.0 0.00 0.00 0.00 52 1006.5
20180221231302 37 212 6.0 8.0 0.00 0.00 0.00 52 1006.6
20180221230802 38 135 6.0 13.0 0.00 0.00 0.00 50 1006.6
20180221230302 38 165 4.0 10.0 0.00 0.00 0.00 50 1006.3
20180221225802 39 170 10.0 14.0 0.00 0.00 0.00 48 1006.1
20180221225302 38 125 3.0 11.0 0.00 0.00 0.00 49 1006.0
20180221224802 37 193 2.0 11.0 0.00 0.00 0.00 51 1006.0
20180221224302 37 166 2.0 11.0 0.00 0.00 0.00 50 1005.9
20180221223802 38 190 0.0 9.0 0.00 0.00 0.00 50 1005.9
20180221223302 38 167 7.0 11.0 0.00 0.00 0.00 49 1005.8
20180221222802 39 150 0.0 9.0 0.00 0.00 0.00 48 1005.8
20180221222302 40 145 3.0 9.0 0.00 0.00 0.00 47 1005.7
20180221221802 40 187 6.0 12.0 0.00 0.00 0.00 47 1005.8
20180221221302 39 163 5.0 10.0 0.00 0.00 0.00 47 1005.6
20180221220802 39 166 7.0 11.0 0.00 0.00 0.00 48 1005.7
20180221220302 39 150 3.0 13.0 0.00 0.00 0.00 48 1005.6
20180221215802 38 156 0.0 14.0 0.00 0.00 0.00 49 1005.6
20180221215302 38 150 1.0 10.0 0.00 0.00 0.00 48 1005.5
20180221214802 38 148 0.0 12.0 0.00 0.00 0.00 48 1005.5
20180221214302 39 212 6.0 15.0 0.00 0.00 0.00 47 1005.5
20180221213802 40 240 4.0 10.0 0.00 0.00 0.00 46 1005.3
20180221213302 39 177 10.0 14.0 0.00 0.00 0.00 47 1005.2
20180221212802 39 133 13.0 18.0 0.00 0.00 0.00 47 1005.2
20180221212302 39 115 6.0 17.0 0.00 0.00 0.00 46 1005.3
20180221211802 39 205 8.0 16.0 0.00 0.00 0.00 48 1005.2
20180221211302 39 226 5.0 18.0 0.00 0.00 0.00 47 1005.2
20180221210802 39 158 11.0 16.0 0.00 0.00 0.00 47 1005.1
20180221210302 39 156 0.0 13.0 0.00 0.00 0.00 49 1005.1
20180221205803 38 166 10.0 13.0 0.00 0.00 0.00 50 1005.1
20180221205302 38 162 13.0 15.0 0.00 0.00 0.00 48 1004.9
20180221204802 38 172 2.0 17.0 0.00 0.00 0.00 49 1004.9
20180221204302 38 169 10.0 15.0 0.00 0.00 0.00 49 1005.0
20180221203802 38 187 5.0 17.0 0.00 0.00 0.00 50 1004.9
20180221203302 38 137 1.0 14.0 0.00 0.00 0.00 50 1004.9
20180221202802 38 155 9.0 14.0 0.00 0.00 0.00 50 1004.9
20180221202302 38 208 4.0 18.0 0.00 0.00 0.00 51 1004.9
20180221201802 38 139 8.0 17.0 0.00 0.00 0.00 50 1004.9
20180221201302 38 169 3.0 13.0 0.00 0.00 0.00 51 1004.9
20180221200802 37 63 1.0 11.0 0.00 0.00 0.00 52 1005.0
20180221200302 37 145 11.0 15.0 0.00 0.00 0.00 52 1005.0
20180221195802 37 173 9.0 14.0 0.00 0.00 0.00 52 1005.1
20180221195302 36 160 3.0 11.0 0.00 0.00 0.00 54 1005.2
20180221194802 36 197 2.0 12.0 0.00 0.00 0.00 54 1005.3
20180221194302 35 207 1.0 14.0 0.00 0.00 0.00 55 1005.3
20180221193802 35 212 0.0 14.0 0.00 0.00 0.00 55 1005.3
20180221193302 35 163 9.0 11.0 0.00 0.00 0.00 55 1005.3
20180221192802 35 152 5.0 10.0 0.00 0.00 0.00 55 1005.3
20180221192302 35 101 0.0 9.0 0.00 0.00 0.00 55 1005.4
20180221191802 35 166 1.0 7.0 0.00 0.00 0.00 56 1005.3
20180221191302 35 150 1.0 10.0 0.00 0.00 0.00 56 1005.5
20180221190802 35 184 8.0 11.0 0.00 0.00 0.00 56 1005.6
20180221190302 34 190 0.0 7.0 0.00 0.00 0.00 57 1005.5
20180221185802 34 183 1.0 10.0 0.00 0.00 0.00 56 1005.5
20180221185303 34 96 0.0 10.0 0.00 0.00 0.00 58 1005.6
20180221184802 34 134 0.0 7.0 0.00 0.00 0.00 58 1005.6
20180221184302 33 203 0.0 5.0 0.00 0.00 0.00 59 1005.6
20180221183802 33 194 0.0 8.0 0.00 0.00 0.00 59 1005.7
20180221183302 32 173 0.0 7.0 0.00 0.00 0.00 60 1005.8
20180221182802 33 188 0.0 5.0 0.00 0.00 0.00 60 1005.7
20180221182302 32 136 0.0 4.0 0.00 0.00 0.00 61 1005.8
20180221181802 32 155 0.0 4.0 0.00 0.00 0.00 62 1005.8
20180221181302 31 203 1.0 12.0 0.00 0.00 0.00 62 1005.8
20180221180802 32 139 0.0 9.0 0.00 0.00 0.00 62 1005.7
20180221180302 32 132 0.0 4.0 0.00 0.00 0.00 64 1005.7
20180221175802 31 228 0.0 2.0 0.00 0.00 0.00 63 1005.7
20180221175302 31 160 0.0 4.0 0.00 0.00 0.00 64 1005.6
20180221174802 31 88 0.0 4.0 0.00 0.00 0.00 65 1005.7
20180221174302 31 156 0.0 3.0 0.00 0.00 0.00 66 1005.7
20180221173802 30 124 0.0 5.0 0.00 0.00 0.00 67 1005.7
20180221173303 30 94 0.0 2.0 0.00 0.00 0.00 66 1005.8
20180221172802 30 166 0.0 4.0 0.00 0.00 0.00 67 1005.8
20180221172302 29 131 0.0 1.0 0.00 0.00 0.00 68 1005.7
20180221171802 29 155 0.0 2.0 0.00 0.00 0.00 68 1005.7
20180221171302 28 152 0.0 2.0 0.00 0.00 0.00 67 1005.7
20180221170802 29 135 0.0 1.0 0.00 0.00 0.00 66 1005.7
20180221170302 29 128 0.0 1.0 0.00 0.00 0.00 65 1005.7
20180221165802 29 173 0.0 0.0 0.00 0.00 0.00 65 1005.8
20180221165302 29 120 0.0 0.0 0.00 0.00 0.00 64 1005.8
20180221164802 29 125 0.0 1.0 0.00 0.00 0.00 63 1005.8
20180221164302 29 150 0.0 0.0 0.00 0.00 0.00 62 1005.8
20180221163802 29 134 0.0 0.0 0.00 0.00 0.00 63 1005.8
20180221163302 28 165 0.0 0.0 0.00 0.00 0.00 63 1005.9
20180221162802 28 155 0.0 0.0 0.00 0.00 0.00 62 1005.8
20180221162302 28 160 0.0 1.0 0.00 0.00 0.00 62 1005.9
20180221161802 28 115 0.0 0.0 0.00 0.00 0.00 61 1005.9
20180221161302 28 153 0.0 1.0 0.00 0.00 0.00 61 1006.0
20180221160802 27 158 0.0 0.0 0.00 0.00 0.00 61 1006.0
20180221160302 27 150 0.0 0.0 0.00 0.00 0.00 61 1006.1
20180221155802 27 115 0.0 0.0 0.00 0.00 0.00 60 1006.0
20180221155302 27 167 0.0 0.0 0.00 0.00 0.00 61 1006.0
20180221154802 27 167 0.0 0.0 0.00 0.00 0.00 60 1006.0
20180221154302 27 153 0.0 0.0 0.00 0.00 0.00 60 1006.0
20180221153802 27 181 0.0 0.0 0.00 0.00 0.00 60 1006.0
20180221153302 26 223 0.0 0.0 0.00 0.00 0.00 60 1006.0
20180221152802 26 155 0.0 0.0 0.00 0.00 0.00 60 1006.0
20180221152302 25 165 0.0 0.0 0.00 0.00 0.00 59 1006.0
20180221151802 25 152 0.0 0.0 0.00 0.00 0.00 58 1006.0
20180221151302 25 152 0.0 0.0 0.00 0.00 0.00 58 1006.0
20180221150802 24 247 0.0 0.0 0.00 0.00 0.00 59 1006.0
20180221150302 24 247 0.0 0.0 0.00 0.00 0.00 58 1006.0
20180221145802 24 133 0.0 0.0 0.00 0.00 0.00 60 1005.9
20180221145302 23 215 0.0 0.0 0.00 0.00 0.00 61 1006.0